Location: Moscow
(55.7500°N, 37.5830°E)
Time: 23:21:27
(UTC+03:00)

COSMOS 2251 DEB - Pass Details

Date: 10 July 2022
Orbit: 738 x 847 km, 74.1° (Epoch: 17 August)

Event Time Altitude Azimuth Distance (km) Brightness Sun altitude
Rises 23:17:15 0° 318° (NW) 3,258 ? -10.4°
Reaches altitude 10° 23:21:56 10° 356° (N) 2,301 ? -10.6°
Maximum altitude 23:23:10 11° 10° (N) 2,242 ? -10.6°
Drops below altitude 10° 23:24:24 10° 24° (NNE) 2,288 ? -10.7°
Sets 23:28:58 0° 62° (ENE) 3,192 ? -10.8°
